Mankato, MN

9:11 AM CDT on April 26, 2017 (GMT -0500)
Mankato Regional

Weather History for KMKT - October, 2013

Change the Weather History Date:

Saturday, October 12, 2013

  Actual Average Record
Temperature  
Mean Temperature 51 °F -  
Max Temperature 60 °F 58 °F 77 °F (2008)
Min Temperature 42 °F 39 °F 24 °F (2006)
Degree Days  
Heating Degree Days 14    
Growing Degree Days 1 (Base 50)    
Moisture  
Dew Point 36 °F    
Average Humidity 57    
Maximum Humidity 76    
Minimum Humidity 34    
Precipitation  
Precipitation 0.00 in - - ()
Sea Level Pressure  
Sea Level Pressure 29.97 in    
Wind  
Wind Speed 12 mph (West)    
Max Wind Speed 29 mph    
Max Gust Speed 38 mph    
Visibility 10 miles    
Events      
Averages and records for this station are not official NWS values.
T = Trace of Precipitation, MM = Missing Value Source: NWS Daily Summary

Daily Weather History Graph

Daily Weather History Graph

Search for Another Location

Airport or City:

Trip Planner

Search our weather history database for the weather conditions in past years. The results will help you decide how hot, cold, wet, or windy it might be!

Date:

Astronomy

Oct. 12, 2013 Rise Set
Actual Time 7:27 AM CDT 6:36 PM CDT
Civil Twilight 6:58 AM CDT 7:05 PM CDT
Nautical Twilight 6:24 AM CDT 7:38 PM CDT
Astronomical Twilight 5:50 AM CDT 8:12 PM CDT
Moon 2:58 PM CDT (10/12) 12:17 AM CDT (10/12)
Length of Visible Light 12h 07m
Length of Day
11h 09m
First Quarter, 59% of the Moon is Illuminated
Oct 12
First Quarter
Oct 18
Full
Oct 26
Last Quarter
Nov 3
New
Nov 9
First Quarter

Hourly Weather History & Observations

Time (CDT) Temp. Windchill Dew Point Humidity Pressure Visibility Wind Dir Wind Speed Gust Speed Precip Events Conditions
12:15 AM 53.6 °F - 44.6 °F 72% 29.77 in 10.0 mi WSW 10.4 mph - N/A   Clear
12:35 AM 53.6 °F - 44.6 °F 72% 29.78 in 10.0 mi WSW 9.2 mph - N/A   Clear
12:55 AM 51.8 °F - 44.6 °F 76% 29.78 in 10.0 mi WSW 9.2 mph - N/A   Clear
1:15 AM 51.8 °F - 42.8 °F 71% 29.79 in 10.0 mi SW 8.1 mph - N/A   Clear
1:35 AM 51.8 °F - 42.8 °F 71% 29.80 in 10.0 mi WSW 10.4 mph - N/A   Clear
1:55 AM 51.8 °F - 42.8 °F 71% 29.80 in 10.0 mi WSW 9.2 mph - N/A   Clear
2:15 AM 50.0 °F - 42.8 °F 76% 29.81 in 10.0 mi WSW 8.1 mph - N/A   Clear
2:35 AM 50.0 °F - 41.0 °F 71% 29.81 in 10.0 mi SW 8.1 mph - N/A   Clear
2:55 AM 48.2 °F - 41.0 °F 76% 29.81 in 10.0 mi WSW 9.2 mph - N/A   Clear
3:15 AM 48.2 °F - 41.0 °F 76% 29.81 in 10.0 mi WSW 10.4 mph - N/A   Clear
3:35 AM 50.0 °F - 41.0 °F 71% 29.82 in 10.0 mi SW 10.4 mph 17.3 mph N/A   Clear
3:55 AM 50.0 °F - 39.2 °F 66% 29.82 in 10.0 mi SW 9.2 mph - N/A   Clear
4:15 AM 48.2 °F - 39.2 °F 71% 29.83 in 10.0 mi WSW 10.4 mph - N/A   Clear
4:35 AM 48.2 °F - 39.2 °F 71% 29.83 in 10.0 mi WSW 10.4 mph - N/A   Clear
4:55 AM 48.2 °F - 39.2 °F 71% 29.83 in 10.0 mi WSW 11.5 mph 16.1 mph N/A   Clear
5:15 AM 48.2 °F - 39.2 °F 71% 29.83 in 10.0 mi WSW 10.4 mph - N/A   Clear
5:35 AM 48.2 °F - 39.2 °F 71% 29.84 in 10.0 mi WSW 11.5 mph - N/A   Clear
5:55 AM 48.2 °F - 39.2 °F 71% 29.85 in 10.0 mi SW 9.2 mph - N/A   Clear
6:15 AM 48.2 °F - 39.2 °F 71% 29.86 in 10.0 mi SW 10.4 mph - N/A   Clear
6:35 AM 48.2 °F - 39.2 °F 71% 29.87 in 10.0 mi WSW 9.2 mph - N/A   Clear
6:55 AM 46.4 °F 41.9 °F 37.4 °F 71% 29.88 in 10.0 mi SW 9.2 mph - N/A   Clear
7:15 AM 46.4 °F 42.4 °F 37.4 °F 71% 29.88 in 10.0 mi SW 8.1 mph - N/A   Clear
7:35 AM 44.6 °F 40.7 °F 37.4 °F 76% 29.89 in 10.0 mi SW 6.9 mph - N/A   Clear
7:55 AM 46.4 °F 42.4 °F 37.4 °F 71% 29.89 in 10.0 mi SW 8.1 mph - N/A   Clear
8:15 AM 46.4 °F 42.9 °F 37.4 °F 71% 29.90 in 10.0 mi SW 6.9 mph - N/A   Clear
8:35 AM 48.2 °F - 37.4 °F 66% 29.90 in 10.0 mi SW 8.1 mph - N/A   Clear
8:55 AM 48.2 °F - 37.4 °F 66% 29.91 in 10.0 mi SW 11.5 mph - N/A   Clear
9:15 AM 50.0 °F - 37.4 °F 62% 29.92 in 10.0 mi WSW 12.7 mph 20.7 mph N/A   Clear
9:35 AM 51.8 °F - 37.4 °F 58% 29.92 in 10.0 mi WSW 17.3 mph 24.2 mph N/A   Clear
9:55 AM 51.8 °F - 37.4 °F 58% 29.93 in 10.0 mi WSW 16.1 mph 25.3 mph N/A   Clear
10:15 AM 53.6 °F - 37.4 °F 54% 29.93 in 10.0 mi West 15.0 mph 24.2 mph N/A   Clear
10:35 AM 53.6 °F - 39.2 °F 58% 29.94 in 10.0 mi West 16.1 mph 24.2 mph N/A   Clear
10:55 AM 55.4 °F - 37.4 °F 51% 29.94 in 10.0 mi West 20.7 mph 28.8 mph N/A   Mostly Cloudy
11:15 AM 55.4 °F - 39.2 °F 54% 29.95 in 10.0 mi West 17.3 mph 28.8 mph N/A   Mostly Cloudy
11:35 AM 57.2 °F - 37.4 °F 48% 29.96 in 10.0 mi West 24.2 mph 28.8 mph N/A   Mostly Cloudy
11:55 AM 55.4 °F - 37.4 °F 51% 29.97 in 10.0 mi West 24.2 mph 32.2 mph N/A   Overcast
12:15 PM 55.4 °F - 37.4 °F 51% 29.97 in 10.0 mi West 20.7 mph 29.9 mph N/A   Overcast
12:35 PM 57.2 °F - 37.4 °F 48% 29.98 in 10.0 mi West 20.7 mph 26.5 mph N/A   Overcast
12:55 PM 57.2 °F - 37.4 °F 48% 29.98 in 10.0 mi West 21.9 mph 29.9 mph N/A   Overcast
1:15 PM 57.2 °F - 35.6 °F 44% 29.98 in 10.0 mi West 21.9 mph 31.1 mph N/A   Overcast
1:35 PM 55.4 °F - 35.6 °F 47% 29.99 in 10.0 mi WNW 21.9 mph 26.5 mph N/A   Overcast
1:55 PM 55.4 °F - 35.6 °F 47% 30.00 in 10.0 mi West 26.5 mph 33.4 mph N/A   Overcast
2:15 PM 57.2 °F - 37.4 °F 48% 30.01 in 10.0 mi WNW 28.8 mph 38.0 mph N/A   Mostly Cloudy
2:35 PM - - - N/A% 30.01 in 10.0 mi WNW 25.3 mph 33.4 mph N/A   Mostly Cloudy
2:55 PM 55.4 °F - 35.6 °F 47% 30.02 in 10.0 mi West 16.1 mph 29.9 mph N/A   Scattered Clouds
3:15 PM 57.2 °F - 35.6 °F 44% 30.02 in 10.0 mi West 16.1 mph 26.5 mph N/A   Clear
3:35 PM 59.0 °F - 33.8 °F 39% 30.01 in 10.0 mi West 20.7 mph 29.9 mph N/A   Clear
3:55 PM 60.8 °F - 32.0 °F 34% 30.02 in 10.0 mi WNW 21.9 mph 33.4 mph N/A   Clear
4:15 PM 60.8 °F - 33.8 °F 36% 30.02 in 10.0 mi West 19.6 mph 26.5 mph N/A   Partly Cloudy
4:35 PM 60.8 °F - 33.8 °F 36% 30.02 in 10.0 mi WNW 18.4 mph 24.2 mph N/A   Partly Cloudy
4:55 PM 60.8 °F - 32.0 °F 34% 30.03 in 10.0 mi WNW 18.4 mph 25.3 mph N/A   Clear
5:15 PM 59.0 °F - 33.8 °F 39% 30.04 in 10.0 mi WNW 15.0 mph 21.9 mph N/A   Clear
5:35 PM 59.0 °F - 32.0 °F 36% 30.05 in 10.0 mi WNW 17.3 mph 24.2 mph N/A   Clear
5:55 PM 59.0 °F - 30.2 °F 34% 30.06 in 10.0 mi WNW 16.1 mph 21.9 mph N/A   Clear
6:15 PM 57.2 °F - 30.2 °F 36% 30.07 in 10.0 mi WNW 13.8 mph 19.6 mph N/A   Clear
6:35 PM 55.4 °F - 30.2 °F 38% 30.08 in 10.0 mi WNW 10.4 mph - N/A   Clear
6:55 PM 55.4 °F - 30.2 °F 38% 30.09 in 10.0 mi WNW 9.2 mph - N/A   Clear
7:15 PM 53.6 °F - 30.2 °F 41% 30.10 in 10.0 mi WNW 8.1 mph - N/A   Clear
7:35 PM 53.6 °F - 30.2 °F 41% 30.11 in 10.0 mi WNW 6.9 mph - N/A   Clear
7:55 PM 51.8 °F - 30.2 °F 44% 30.12 in 10.0 mi West 5.8 mph - N/A   Clear
8:15 PM 48.2 °F - 30.2 °F 50% 30.13 in 10.0 mi West 5.8 mph - N/A   Clear
8:35 PM 48.2 °F - 30.2 °F 50% 30.14 in 10.0 mi West 5.8 mph - N/A   Clear
8:55 PM 48.2 °F - 30.2 °F 50% 30.15 in 10.0 mi West 4.6 mph - N/A   Clear
9:15 PM 48.2 °F - 30.2 °F 50% 30.16 in 10.0 mi West 4.6 mph - N/A   Clear
9:35 PM 48.2 °F - 30.2 °F 50% 30.17 in 10.0 mi West 5.8 mph - N/A   Clear
9:55 PM 46.4 °F 43.5 °F 30.2 °F 53% 30.18 in 10.0 mi West 5.8 mph - N/A   Clear
10:15 PM 46.4 °F 43.5 °F 30.2 °F 53% 30.18 in 10.0 mi West 5.8 mph - N/A   Clear
10:35 PM 46.4 °F 43.5 °F 30.2 °F 53% 30.19 in 10.0 mi West 5.8 mph - N/A   Clear
10:55 PM 44.6 °F 40.7 °F 30.2 °F 57% 30.19 in 10.0 mi West 6.9 mph - N/A   Clear
11:15 PM 44.6 °F 40.7 °F 30.2 °F 57% 30.20 in 10.0 mi West 6.9 mph - N/A   Clear
11:35 PM 42.8 °F 38.6 °F 30.2 °F 61% 30.21 in 10.0 mi West 6.9 mph - N/A   Clear
11:55 PM 42.8 °F 38.6 °F 30.2 °F 61% 30.22 in 10.0 mi WSW 6.9 mph - N/A   Clear